[[{"header":{"parameterUnit":"m.s-1","parameterCategory":1,"la1":30.2991,"la2":30.254,"lo1":-89.0895,"lo2":-89.0444,"dy":0.0017,"dx":0.0017,"nx":28,"ny":28,"refTime":"2025-11-06T09:00:00:Z","depth":0,"parameterNumber":2,"parameterNumberName":"U-component_of_WINDS"},"data":[0,0,0,0,0,0,0,0,0,0,0,0,0,0,0,0,0,0,0,0,0,0,0,0,0,0,0,0,0,0,0,0,0,0,0,0,0,0,0,0,0,0,0,0,0,0,0,0,0,0,0,0,0,0,0,0,0,0,-0.133,-0.1331,0,-0.1378,-0.1378,-0.1379,-0.1376,-0.1375,-0.1374,-0.1374,-0.1425,-0.1427,-0.1429,0,0,0,0,0,0,0,0,0,0,0,0,0,-0.1239,-0.1241,-0.133,-0.1331,-0.1331,-0.1377,-0.1378,-0.1379,-0.1376,-0.1375,-0.1374,-0.1373,-0.1425,-0.1427,-0.143,0,0,0,0,0,0,0,0,0,0,0,0,0,-0.1282,-0.1241,-0.133,-0.1335,-0.1336,-0.1377,-0.1378,-0.1379,-0.1376,-0.1375,-0.1374,-0.1373,-0.1424,-0.1427,-0.143,-0.147,0,0,-0.1439,-0.1441,0,0,0,0,0,0,0,0,-0.128,-0.1285,-0.1334,-0.1335,-0.1336,-0.137,-0.1365,-0.141,-0.1376,-0.1361,-0.1374,-0.1372,-0.1408,-0.1412,-0.1424,-0.1472,-0.1475,-0.144,-0.1441,-0.1443,-0.1444,0,0,0,0,0,0,0,-0.1277,-0.1283,-0.1349,-0.1335,-0.1336,-0.1336,-0.1341,-0.1374,-0.139,-0.1362,-0.1362,-0.1368,-0.1408,-0.1421,-0.1425,-0.1475,-0.1439,-0.1442,-0.1444,-0.1445,-0.156,-0.1561,0,0,0,0,0,0,-0.1272,-0.1281,-0.1347,-0.135,-0.1304,-0.1339,-0.1344,-0.136,-0.1389,-0.1393,-0.1368,-0.1367,-0.1416,-0.1421,-0.1427,-0.1476,-0.1443,-0.1446,-0.1447,-0.1558,-0.156,-0.1561,0,0,0,0,0,0,-0.127,-0.1278,-0.1345,-0.1316,-0.1324,-0.1341,-0.1359,-0.1361,-0.1374,-0.1394,-0.1397,-0.1378,-0.1415,-0.1422,-0.1459,-0.1477,-0.1447,-0.145,-0.1557,-0.1559,-0.156,-0.1574,0,0,0,0,0,0,-0.1267,-0.1277,-0.1292,-0.1316,-0.1326,-0.1376,-0.136,-0.1363,-0.1379,-0.1378,-0.1404,-0.1407,-0.1415,-0.1454,-0.1462,-0.1481,-0.1452,-0.1555,-0.1558,-0.156,-0.1572,-0.1576,-0.1579,0,0,0,0,0,-0.1264,-0.1295,-0.1293,-0.1301,-0.1344,-0.1377,-0.1383,-0.1391,-0.138,-0.1396,-0.1409,-0.1406,-0.1474,-0.1458,-0.1467,-0.1487,-0.1554,-0.1557,-0.156,-0.157,-0.1575,-0.1579,0,0,0,0,0,0,-0.1274,-0.1298,-0.1296,-0.1335,-0.1354,-0.1377,-0.1397,-0.1396,-0.1419,-0.1417,-0.1426,-0.1432,-0.1469,-0.1482,-0.1464,-0.1527,-0.1513,-0.1517,-0.1518,-0.1523,-0.1526,-0.1523,-0.1455,0,0,0,0,0,-0.128,-0.1304,-0.1324,-0.1357,-0.1366,-0.138,-0.1394,-0.1398,-0.1419,-0.1427,-0.1443,-0.1464,-0.149,-0.1507,-0.1532,-0.1573,-0.1579,-0.1591,-0.1595,-0.1598,-0.1602,-0.1626,-0.1631,-0.157,-0.157,-0.157,0,0,-0.1294,-0.131,-0.1325,-0.1359,-0.1374,-0.14,-0.1387,-0.1414,-0.1433,-0.1432,-0.1467,-0.148,-0.1503,-0.1543,-0.1561,-0.1554,-0.162,-0.1602,-0.1604,-0.1606,-0.1629,-0.1635,-0.164,-0.1572,-0.1572,-0.1571,0,0,-0.1333,-0.1347,-0.1376,-0.1391,-0.1414,-0.1422,-0.1429,-0.1452,-0.146,-0.1495,-0.1495,-0.1518,-0.1562,-0.1579,-0.1594,-0.1638,-0.1637,-0.1646,-0.1666,-0.1688,-0.1693,-0.1698,-0.1714,-0.172,-0.165,-0.165,-0.165,0,-0.1348,-0.1385,-0.1391,-0.1418,-0.1434,-0.1432,-0.1461,-0.1476,-0.1507,-0.1517,-0.1509,-0.1564,-0.158,-0.1624,-0.1634,-0.1646,-0.1655,-0.1643,-0.1692,-0.1696,-0.17,-0.1716,-0.1722,-0.1651,-0.1651,-0.165,-0.165,0,-0.1403,-0.1429,-0.1449,-0.1477,-0.1495,-0.1523,-0.1534,-0.1551,-0.1553,-0.1563,-0.1599,-0.1618,-0.1646,-0.1657,-0.166,-0.1701,-0.1696,-0.169,-0.1676,-0.1707,-0.1722,-0.1728,-0.1652,-0.1652,-0.1651,-0.1651,0,0,-0.145,-0.148,-0.1488,-0.15,-0.1525,-0.1546,-0.1574,-0.1601,-0.1616,-0.1636,-0.1661,-0.1698,-0.1692,-0.1708,-0.1713,-0.1733,-0.1767,-0.1724,-0.1725,-0.1732,-0.1814,-0.1819,-0.1826,-0.1766,-0.1767,-0.1768,-0.1812,0,-0.1492,-0.1542,-0.1547,-0.1592,-0.1616,-0.1614,-0.1639,-0.1657,-0.1667,-0.169,-0.1701,-0.1727,-0.1717,-0.1727,-0.1746,-0.1759,-0.1784,-0.1756,-0.179,-0.1791,-0.1785,-0.1834,-0.184,-0.1881,-0.1818,-0.1819,-0.182,0,-0.1548,-0.1569,-0.1616,-0.1636,-0.1647,-0.1669,-0.1694,-0.1715,-0.1736,-0.1742,-0.176,-0.1761,-0.1792,-0.1775,-0.1817,-0.1798,-0.1812,-0.182,-0.1822,-0.1827,-0.1808,-0.1841,-0.1894,-0.19,-0.1829,-0.1828,-0.1828,0,-0.1579,-0.1619,-0.1652,-0.1663,-0.1688,-0.1703,-0.1715,-0.1734,-0.175,-0.1772,-0.1782,-0.1808,-0.1822,-0.1842,-0.1851,-0.1839,-0.1893,-0.1877,-0.19,-0.1899,-0.1912,-0.1912,-0.1969,-0.192,-0.192,-0.1919,-0.1919,0,-0.1625,-0.1654,-0.1666,-0.1686,-0.1719,-0.1725,-0.1757,-0.1768,-0.1785,-0.1808,-0.1808,-0.183,-0.184,-0.1864,-0.1871,-0.1905,-0.1911,-0.1917,-0.1919,-0.1918,-0.1917,-0.1928,-0.1926,-0.1921,-0.1921,-0.192,-0.192,0,-0.1666,-0.1675,-0.1711,-0.1731,-0.1737,-0.176,-0.1778,-0.1798,-0.1806,-0.1836,-0.1843,-0.1857,-0.1885,-0.1896,-0.193,-0.1934,-0.1974,-0.1973,-0.1967,-0.1968,-0.1989,-0.1988,-0.2057,-0.2067,-0.201,-0.2011,-0.2011,0,-0.1696,-0.1718,-0.174,-0.1755,-0.1766,-0.1791,-0.1806,-0.1813,-0.183,-0.1854,-0.1872,-0.1899,-0.1921,-0.1966,-0.198,-0.2006,-0.2006,-0.2029,-0.201,-0.2008,-0.2008,-0.2006,-0.2009,-0.2033,-0.2033,-0.2034,-0.2034,0,-0.1748,-0.1751,-0.1773,-0.1797,-0.1815,-0.1835,-0.1853,-0.1866,-0.1875,-0.1894,-0.1922,-0.1939,-0.1973,-0.2001,-0.2027,-0.204,-0.2039,-0.2039,-0.2046,-0.2046,-0.2042,-0.2045,-0.1977,-0.2038,-0.2038,-0.2038,-0.2037,-0.2037,-0.1784,-0.1804,-0.1822,-0.1847,-0.1862,-0.1879,-0.1899,-0.191,-0.1933,-0.196,-0.1963,-0.1993,-0.2013,-0.2048,-0.2062,-0.2086,-0.208,-0.209,-0.2092,-0.2095,-0.2097,-0.2037,-0.2091,-0.2091,-0.2091,-0.209,-0.209,0,-0.1837,-0.1849,-0.1871,-0.1897,-0.1917,-0.1913,-0.1933,-0.195,-0.1976,-0.1994,-0.2016,-0.2048,-0.2074,-0.2089,-0.2116,-0.2132,-0.2133,-0.2139,-0.2139,-0.2142,-0.21,-0.2092,-0.2138,-0.2138,-0.2138,-0.2138,-0.2138,-0.2138,-0.1867,-0.19,-0.1905,-0.1945,-0.1957,-0.1985,-0.1997,-0.2014,-0.2028,-0.2063,-0.2085,-0.2094,-0.2112,-0.2139,-0.2163,-0.2167,-0.2178,-0.2185,-0.2188,-0.215,-0.2145,-0.214,-0.2132,-0.2187,-0.2187,-0.2228,-0.2229,-0.2229]},{"header":{"parameterUnit":"m.s-1","parameterCategory":1,"la1":30.2991,"la2":30.254,"lo1":-89.0895,"lo2":-89.0444,"dy":0.0017,"dx":0.0017,"nx":28,"ny":28,"refTime":"2025-11-06T09:00:00:Z","depth":0,"parameterNumber":3,"parameterNumberName":"V-component_of_WINDS"},"data":[0,0,0,0,0,0,0,0,0,0,0,0,0,0,0,0,0,0,0,0,0,0,0,0,0,0,0,0,0,0,0,0,0,0,0,0,0,0,0,0,0,0,0,0,0,0,0,0,0,0,0,0,0,0,0,0,0,0,-1.8162,-1.8163,0,-1.8262,-1.8263,-1.8265,-1.8277,-1.8276,-1.8275,-1.8274,-1.8372,-1.8376,-1.8379,0,0,0,0,0,0,0,0,0,0,0,0,0,-1.7977,-1.7981,-1.8162,-1.8163,-1.8164,-1.8262,-1.8263,-1.8265,-1.8277,-1.8276,-1.8275,-1.8274,-1.8371,-1.8375,-1.838,0,0,0,0,0,0,0,0,0,0,0,0,0,-1.8065,-1.7982,-1.8162,-1.8183,-1.8185,-1.8262,-1.8264,-1.8265,-1.8278,-1.8276,-1.8275,-1.8273,-1.837,-1.8375,-1.838,-1.8441,0,0,-1.8396,-1.8399,0,0,0,0,0,0,0,0,-1.806,-1.8072,-1.8178,-1.8181,-1.8185,-1.8256,-1.8234,-1.8324,-1.8278,-1.8242,-1.8274,-1.8273,-1.8335,-1.8343,-1.8364,-1.8446,-1.845,-1.8397,-1.84,-1.8402,-1.8404,0,0,0,0,0,0,0,-1.8054,-1.8068,-1.8201,-1.818,-1.8184,-1.8186,-1.8197,-1.8251,-1.8295,-1.8245,-1.8247,-1.8259,-1.8336,-1.8359,-1.8367,-1.8452,-1.8397,-1.8401,-1.8405,-1.8407,-1.8588,-1.859,0,0,0,0,0,0,-1.8045,-1.8063,-1.8198,-1.8204,-1.8118,-1.819,-1.8202,-1.8234,-1.8295,-1.8303,-1.826,-1.8259,-1.8351,-1.8361,-1.837,-1.8446,-1.8402,-1.8407,-1.841,-1.8587,-1.8589,-1.8591,0,0,0,0,0,0,-1.8041,-1.8057,-1.8194,-1.8134,-1.8152,-1.8195,-1.8231,-1.8237,-1.8261,-1.8306,-1.8313,-1.8276,-1.835,-1.8363,-1.8424,-1.8449,-1.8409,-1.8414,-1.8585,-1.8587,-1.859,-1.8597,0,0,0,0,0,0,-1.8036,-1.8055,-1.808,-1.8135,-1.8155,-1.8247,-1.8232,-1.824,-1.827,-1.827,-1.8323,-1.833,-1.835,-1.8416,-1.8429,-1.8456,-1.8418,-1.8583,-1.8586,-1.8589,-1.8595,-1.86,-1.8604,0,0,0,0,0,-1.8029,-1.8077,-1.8081,-1.8097,-1.8187,-1.8249,-1.826,-1.8284,-1.8272,-1.8297,-1.8326,-1.8328,-1.8445,-1.8422,-1.8437,-1.8466,-1.8581,-1.8585,-1.8589,-1.8593,-1.8599,-1.8604,0,0,0,0,0,0,-1.8022,-1.8085,-1.809,-1.8157,-1.8198,-1.8251,-1.8282,-1.829,-1.8333,-1.8331,-1.8357,-1.8369,-1.8429,-1.8453,-1.8427,-1.8528,-1.8512,-1.8519,-1.851,-1.8516,-1.852,-1.8512,-1.8423,0,0,0,0,0,-1.8029,-1.8076,-1.8127,-1.8181,-1.8202,-1.8239,-1.8267,-1.8282,-1.8324,-1.8341,-1.8374,-1.8414,-1.846,-1.8489,-1.8534,-1.8599,-1.861,-1.8626,-1.863,-1.8634,-1.8639,-1.8675,-1.8683,-1.8603,-1.8603,-1.8603,0,0,-1.8043,-1.8083,-1.811,-1.8181,-1.8215,-1.8261,-1.8253,-1.8302,-1.8337,-1.8348,-1.8408,-1.8434,-1.848,-1.8544,-1.8573,-1.8566,-1.8664,-1.8639,-1.8641,-1.8645,-1.868,-1.8687,-1.8694,-1.8606,-1.8605,-1.8605,0,0,-1.8092,-1.8127,-1.8176,-1.821,-1.8261,-1.8286,-1.8298,-1.835,-1.8368,-1.8429,-1.8439,-1.8479,-1.8558,-1.859,-1.8617,-1.868,-1.8683,-1.8693,-1.8716,-1.8751,-1.8757,-1.8763,-1.8785,-1.8792,-1.8699,-1.8699,-1.8699,0,-1.8101,-1.8174,-1.82,-1.825,-1.8281,-1.8295,-1.8344,-1.8376,-1.8438,-1.8458,-1.845,-1.8549,-1.8581,-1.8652,-1.8668,-1.8689,-1.8703,-1.8687,-1.8755,-1.876,-1.8766,-1.8787,-1.8795,-1.8699,-1.8699,-1.8699,-1.8699,0,-1.8183,-1.8233,-1.8267,-1.8328,-1.8363,-1.8412,-1.8445,-1.8477,-1.8489,-1.8514,-1.8576,-1.8615,-1.8668,-1.8686,-1.8698,-1.8759,-1.8753,-1.8749,-1.8733,-1.8774,-1.8794,-1.8802,-1.8701,-1.87,-1.87,-1.87,0,0,-1.8229,-1.8307,-1.8318,-1.8347,-1.8405,-1.8443,-1.8493,-1.8546,-1.8573,-1.8615,-1.8657,-1.8723,-1.8721,-1.8751,-1.8767,-1.8797,-1.8844,-1.879,-1.8791,-1.8798,-1.8913,-1.8915,-1.8924,-1.8847,-1.8849,-1.885,-1.8909,0,-1.8284,-1.8375,-1.8401,-1.8477,-1.8523,-1.8537,-1.8581,-1.862,-1.8645,-1.8687,-1.8713,-1.876,-1.8753,-1.8772,-1.8803,-1.8832,-1.8867,-1.8828,-1.8885,-1.8887,-1.8872,-1.8935,-1.8937,-1.8991,-1.8917,-1.8919,-1.892,0,-1.836,-1.8407,-1.8488,-1.854,-1.8561,-1.8599,-1.865,-1.8691,-1.8735,-1.8751,-1.8786,-1.8799,-1.885,-1.8832,-1.8903,-1.8875,-1.89,-1.8918,-1.8921,-1.8926,-1.8905,-1.8941,-1.9008,-1.9016,-1.8932,-1.8931,-1.893,0,-1.8385,-1.8468,-1.8527,-1.8551,-1.8614,-1.8641,-1.8668,-1.8712,-1.8742,-1.8787,-1.8807,-1.8856,-1.8882,-1.8919,-1.8945,-1.893,-1.9013,-1.8997,-1.9027,-1.9026,-1.9043,-1.9041,-1.9114,-1.906,-1.906,-1.906,-1.906,0,-1.8444,-1.8492,-1.8539,-1.8575,-1.863,-1.8659,-1.8712,-1.874,-1.8779,-1.882,-1.8835,-1.8873,-1.8905,-1.8947,-1.8967,-1.9022,-1.9034,-1.9048,-1.9052,-1.9046,-1.9044,-1.9062,-1.9058,-1.9062,-1.9062,-1.9061,-1.9061,0,-1.848,-1.8514,-1.8579,-1.8634,-1.8649,-1.8687,-1.8734,-1.8769,-1.8795,-1.8847,-1.886,-1.89,-1.8951,-1.898,-1.9043,-1.9057,-1.9117,-1.9121,-1.9103,-1.9105,-1.9132,-1.9129,-1.9218,-1.9231,-1.9169,-1.917,-1.917,0,-1.8515,-1.8553,-1.8613,-1.8642,-1.867,-1.8717,-1.8749,-1.8779,-1.8812,-1.8866,-1.8895,-1.8946,-1.8989,-1.9068,-1.9102,-1.915,-1.9154,-1.9182,-1.9161,-1.9154,-1.9154,-1.9151,-1.9155,-1.9185,-1.9186,-1.9186,-1.9187,0,-1.8572,-1.8587,-1.8634,-1.8686,-1.8724,-1.8766,-1.8808,-1.8831,-1.8867,-1.8903,-1.8955,-1.8989,-1.9054,-1.9105,-1.9156,-1.9182,-1.919,-1.9194,-1.9203,-1.9196,-1.9184,-1.919,-1.9112,-1.9191,-1.9191,-1.919,-1.919,-1.919,-1.8609,-1.8644,-1.8691,-1.8742,-1.8777,-1.8816,-1.8853,-1.8884,-1.8929,-1.8985,-1.9,-1.9055,-1.9099,-1.9169,-1.9197,-1.9239,-1.9234,-1.9248,-1.9251,-1.9254,-1.9254,-1.9178,-1.9248,-1.9248,-1.9248,-1.9248,-1.9248,0,-1.8667,-1.8699,-1.8746,-1.8804,-1.8844,-1.8851,-1.8898,-1.893,-1.8979,-1.902,-1.9063,-1.9123,-1.9172,-1.921,-1.9261,-1.9287,-1.9292,-1.93,-1.9297,-1.9303,-1.9256,-1.9243,-1.9295,-1.9295,-1.9295,-1.9295,-1.9295,-1.9295,-1.8702,-1.8761,-1.8782,-1.8858,-1.8889,-1.8945,-1.8971,-1.9006,-1.904,-1.9107,-1.9149,-1.9174,-1.9214,-1.9268,-1.9313,-1.9323,-1.934,-1.9347,-1.9357,-1.9312,-1.9307,-1.9302,-1.9289,-1.935,-1.935,-1.9401,-1.9401,-1.9402]}]]